Location: Ponte Samoggia
(44.5667°N, 11.1333°E)
Time: 00:21:57
(UTC+00:00)

SAR-Lupe-2 - Pass Details

Date: 26 May 2022
Orbit: 481 x 482 km, 98.1° (Epoch: 23 June)

Event Time Altitude Azimuth Distance (km) Brightness Sun altitude
Rises 01:03:04 0° 18° (NNE) 2,554 8.8 -19.6°
Reaches altitude 10° 01:05:11 10° 23° (NNE) 1,669 7.5 -19.5°
Maximum altitude 01:08:41 51° 100° (E) 611 4.1 -19.2°
Enters shadow 01:09:35 40° 148° (SSE) 729 4.2 -19.1°
